When you browse on this site, cookies collect data to enhance your experience and personalize the content and advertising you see.
Visit our Privacy Policy to learn more. By continuing to use the site, you agree to this use of cookies and data.
EN

Hourly Weather Lyman (Krasnyj Liman)

Today, 11 July, Saturday

Time Temperature Precipitation Wind Pressure Humidity
00:00 +18°C° 0 mm 2 mps 756 mmHg 66%
01:00 +18°C° 0 mm 2 mps 756 mmHg 68%
02:00 +18°C° 0 mm 1 mps 756 mmHg 71%
03:00 +18°C° 0 mm 1 mps 756 mmHg 73%
04:00 +18°C° 0 mm 1 mps 756 mmHg 74%
05:00 +17°C° 0 mm 2 mps 756 mmHg 74%
06:00 +17°C° 0 mm 2 mps 756 mmHg 75%
07:00 +19°C° 0 mm 2 mps 756 mmHg 69%
08:00 +21°C° 0 mm 2 mps 756 mmHg 62%
09:00 +24°C° 0 mm 3 mps 757 mmHg 55%
10:00 +25°C° 0 mm 3 mps 756 mmHg 51%
11:00 +26°C° 0 mm 3 mps 756 mmHg 46%
12:00 +27°C° 0 mm 3 mps 756 mmHg 42%
13:00 +28°C° 0 mm 3 mps 756 mmHg 40%
14:00 +29°C° 0 mm 3 mps 755 mmHg 39%
15:00 +29°C° 0 mm 4 mps 755 mmHg 38%
16:00 +29°C° 0 mm 4 mps 755 mmHg 40%
17:00 +28°C° 0 mm 4 mps 754 mmHg 42%
18:00 +28°C° 0 mm 4 mps 754 mmHg 44%
19:00 +26°C° 0 mm 3 mps 754 mmHg 50%
20:00 +24°C° 0 mm 3 mps 754 mmHg 57%
21:00 +22°C° 0 mm 3 mps 754 mmHg 63%
22:00 +21°C° 0 mm 3 mps 754 mmHg 66%
23:00 +20°C° 0 mm 3 mps 754 mmHg 69%

Tomorrow, 12 July, Sunday

Time Temperature Precipitation Wind Pressure Humidity
00:00 +19°C° 0 mm 3 mps 753 mmHg 72%
01:00 +19°C° 0 mm 3 mps 753 mmHg 75%
02:00 +18°C° 0 mm 3 mps 753 mmHg 77%
03:00 +18°C° 0 mm 3 mps 753 mmHg 79%
04:00 +18°C° 0 mm 3 mps 752 mmHg 79%
05:00 +18°C° 0 mm 3 mps 752 mmHg 80%
06:00 +18°C° 0 mm 3 mps 752 mmHg 80%
07:00 +20°C° 0 mm 3 mps 752 mmHg 75%
08:00 +22°C° 0 mm 4 mps 751 mmHg 70%
09:00 +26°C° 0 mm 4 mps 751 mmHg 65%
10:00 +27°C° 0 mm 4 mps 751 mmHg 61%
11:00 +29°C° 0 mm 4 mps 751 mmHg 57%
12:00 +32°C° 0 mm 4 mps 750 mmHg 53%
13:00 +32°C° 0.1 mm 4 mps 750 mmHg 52%
14:00 +32°C° 0.1 mm 4 mps 750 mmHg 51%
15:00 +33°C° 0.1 mm 4 mps 749 mmHg 51%
16:00 +32°C° 0.2 mm 4 mps 749 mmHg 51%
17:00 +32°C° 0.2 mm 4 mps 748 mmHg 51%
18:00 +32°C° 0.2 mm 4 mps 747 mmHg 51%
19:00 +30°C° 0 mm 4 mps 747 mmHg 57%
20:00 +28°C° 0 mm 4 mps 748 mmHg 62%
21:00 +26°C° 0 mm 4 mps 748 mmHg 67%
22:00 +25°C° 1.5 mm 3 mps 747 mmHg 75%
23:00 +24°C° 1.5 mm 2 mps 747 mmHg 82%

Day after tomorrow, 13 July, Monday

Time Temperature Precipitation Wind Pressure Humidity
00:00 +23°C° 1.5 mm 2 mps 747 mmHg 89%
01:00 +21°C° 0.5 mm 2 mps 746 mmHg 90%
02:00 +21°C° 0.5 mm 2 mps 746 mmHg 90%
03:00 +21°C° 0.5 mm 2 mps 746 mmHg 90%
04:00 +21°C° 0 mm 2 mps 746 mmHg 90%
05:00 +21°C° 0 mm 2 mps 745 mmHg 89%
06:00 +21°C° 0 mm 2 mps 745 mmHg 89%
07:00 +24°C° 0 mm 2 mps 745 mmHg 82%
08:00 +25°C° 0 mm 1 mps 745 mmHg 76%
09:00 +26°C° 0 mm 1 mps 745 mmHg 70%
10:00 +27°C° 0 mm 1 mps 744 mmHg 65%
11:00 +28°C° 0 mm 1 mps 744 mmHg 59%
12:00 +30°C° 0 mm 1 mps 744 mmHg 54%
13:00 +30°C° 0.1 mm 2 mps 744 mmHg 52%
14:00 +31°C° 0.1 mm 2 mps 744 mmHg 51%
15:00 +31°C° 0.1 mm 3 mps 744 mmHg 49%
16:00 +31°C° 0.6 mm 3 mps 743 mmHg 52%
17:00 +30°C° 0.6 mm 3 mps 743 mmHg 55%
18:00 +30°C° 0.6 mm 3 mps 742 mmHg 58%
19:00 +27°C° 3.6 mm 3 mps 743 mmHg 69%
20:00 +25°C° 3.6 mm 2 mps 743 mmHg 79%
21:00 +22°C° 3.6 mm 1 mps 743 mmHg 89%
22:00 +21°C° 0.5 mm 2 mps 743 mmHg 91%
23:00 +21°C° 0.5 mm 2 mps 743 mmHg 92%

14 July, Tuesday

Time Temperature Precipitation Wind Pressure Humidity
00:00 +20°C° 0.5 mm 2 mps 743 mmHg 93%
01:00 +20°C° 0 mm 2 mps 743 mmHg 94%
02:00 +20°C° 0 mm 2 mps 743 mmHg 95%
03:00 +20°C° 0 mm 2 mps 743 mmHg 96%
04:00 +20°C° 0 mm 3 mps 743 mmHg 95%
05:00 +19°C° 0 mm 3 mps 743 mmHg 95%
06:00 +19°C° 0 mm 4 mps 743 mmHg 94%
07:00 +20°C° 0 mm 4 mps 744 mmHg 92%
08:00 +20°C° 0 mm 4 mps 744 mmHg 90%
09:00 +20°C° 0 mm 4 mps 744 mmHg 88%
10:00 +20°C° 0 mm 4 mps 744 mmHg 87%
11:00 +20°C° 0 mm 4 mps 744 mmHg 86%
12:00 +21°C° 0 mm 5 mps 745 mmHg 85%
13:00 +20°C° 0.3 mm 5 mps 745 mmHg 85%
14:00 +20°C° 0.3 mm 5 mps 745 mmHg 85%
15:00 +20°C° 0.3 mm 6 mps 745 mmHg 86%
16:00 +20°C° 0.1 mm 6 mps 745 mmHg 85%
17:00 +19°C° 0.1 mm 6 mps 745 mmHg 84%
18:00 +19°C° 0.1 mm 6 mps 745 mmHg 83%
19:00 +19°C° 0 mm 6 mps 745 mmHg 84%
20:00 +17°C° 0 mm 6 mps 746 mmHg 85%
21:00 +17°C° 0 mm 6 mps 746 mmHg 86%
22:00 +17°C° 0 mm 6 mps 746 mmHg 87%
23:00 +16°C° 0 mm 6 mps 746 mmHg 88%

15 July, Wednesday

Time Temperature Precipitation Wind Pressure Humidity
00:00 +16°C° 0 mm 6 mps 746 mmHg 88%
01:00 +16°C° 0 mm 6 mps 746 mmHg 89%
02:00 +15°C° 0 mm 6 mps 747 mmHg 89%
03:00 +15°C° 0 mm 6 mps 747 mmHg 90%
04:00 +15°C° 0 mm 6 mps 747 mmHg 88%
05:00 +15°C° 0 mm 6 mps 747 mmHg 87%
06:00 +15°C° 0 mm 5 mps 748 mmHg 86%
07:00 +16°C° 0 mm 5 mps 748 mmHg 82%
08:00 +17°C° 0 mm 5 mps 749 mmHg 77%
09:00 +19°C° 0 mm 5 mps 749 mmHg 73%
10:00 +21°C° 0 mm 5 mps 749 mmHg 67%
11:00 +22°C° 0 mm 5 mps 750 mmHg 60%
12:00 +24°C° 0 mm 6 mps 750 mmHg 53%
13:00 +24°C° 0 mm 6 mps 750 mmHg 50%
14:00 +26°C° 0 mm 6 mps 750 mmHg 48%
15:00 +26°C° 0 mm 6 mps 750 mmHg 45%
16:00 +26°C° 0 mm 5 mps 750 mmHg 47%
17:00 +25°C° 0 mm 5 mps 750 mmHg 48%
18:00 +25°C° 0 mm 5 mps 750 mmHg 49%
19:00 +22°C° 0 mm 4 mps 750 mmHg 54%
20:00 +20°C° 0 mm 3 mps 751 mmHg 59%
21:00 +18°C° 0 mm 2 mps 751 mmHg 64%
22:00 +18°C° 0 mm 2 mps 751 mmHg 66%
23:00 +18°C° 0 mm 1 mps 751 mmHg 67%

16 July, Thursday

Time Temperature Precipitation Wind Pressure Humidity
00:00 +16°C° 0 mm 1 mps 751 mmHg 69%
01:00 +16°C° 0 mm 1 mps 751 mmHg 70%
02:00 +16°C° 0 mm 1 mps 751 mmHg 71%
03:00 +15°C° 0 mm 1 mps 751 mmHg 73%
04:00 +16°C° 0 mm 1 mps 751 mmHg 73%
05:00 +15°C° 0 mm 0 mps 751 mmHg 74%
06:00 +15°C° 0 mm 0 mps 751 mmHg 74%
07:00 +19°C° 0 mm 1 mps 751 mmHg 68%
08:00 +21°C° 0 mm 1 mps 751 mmHg 61%
09:00 +22°C° 0 mm 1 mps 752 mmHg 55%
10:00 +23°C° 0 mm 2 mps 751 mmHg 50%
11:00 +24°C° 0 mm 2 mps 751 mmHg 45%
12:00 +25°C° 0 mm 2 mps 751 mmHg 41%
13:00 +26°C° 0 mm 2 mps 751 mmHg 40%
14:00 +26°C° 0 mm 2 mps 751 mmHg 38%
15:00 +27°C° 0 mm 2 mps 751 mmHg 37%
16:00 +27°C° 0 mm 2 mps 750 mmHg 39%
17:00 +26°C° 0 mm 2 mps 750 mmHg 41%
18:00 +26°C° 0 mm 2 mps 750 mmHg 43%
19:00 +24°C° 0 mm 2 mps 750 mmHg 49%
20:00 +23°C° 0 mm 1 mps 750 mmHg 54%
21:00 +19°C° 0 mm 0 mps 750 mmHg 59%
22:00 +20°C° 0 mm 1 mps 750 mmHg 60%
23:00 +20°C° 0 mm 1 mps 750 mmHg 61%
Show more